This demonstration page uses our WeatherBlox Daily Observations layout. Learn more.

Left ArrowRight Arrow

38.88101, -77.10428

Hourly Observations for September 8, 2022

Temp ( °F °C ) Dew Point ( °F °C ) Humidity (%) Winds ( mph kmh ) Pressure ( in mb ) Visibility ( mi km ) Precip ( " mm )
12:52 am 00:52 Cloudy 70 21.1 66 18.9 87 87 NE 8 13 29.95 1014 10 16 0.00 0.00
1:08 am 01:08 Cloudy 70 21.1 66 18.9 87 87 NE 7 11 29.95 1014 10 16 0.00 0.00
1:52 am 01:52 Cloudy 70 21.1 66 18.9 87 87 NE 8 13 29.94 1014 10 16 0.00 0.00
2:52 am 02:52 Cloudy 70 21.1 66 18.9 87 87 NNE 7 11 29.94 1014 10 16 0.00 0.00
3:52 am 03:52 Cloudy 70 21.1 65 18.3 84 84 N 6 9 29.93 1014 10 16 0.00 0.00
4:52 am 04:52 Cloudy 70 21.1 65 18.3 84 84 N 8 13 29.93 1014 10 16 0.00 0.00
5:52 am 05:52 Cloudy 70 21.1 65 18.3 84 84 N 7 11 29.93 1014 10 16 0.00 0.00
6:52 am 06:52 Cloudy 70 21.1 64 17.8 81 81 NNE 8 13 29.94 1014 10 16 0.00 0.00
7:52 am 07:52 Cloudy 70 21.1 64 17.8 81 81 N 7 11 29.94 1014 10 16 0.00 0.00
8:52 am 08:52 Cloudy 71 21.7 64 17.8 79 79 NNE 9 15 29.94 1014 10 16 0.00 0.00
9:52 am 09:52 Cloudy 73 22.8 64 17.8 73 73 NNE 9 15 29.94 1014 10 16 0.00 0.00
10:52 am 10:52 Cloudy 74 23.3 65 18.3 74 74 NE 8 13 29.94 1014 10 16 0.00 0.00
11:23 am 11:23 Mostly Cloudy 75 23.9 64 17.8 69 69 NNE 9 15 29.94 1014 10 16 0.00 0.00
11:52 am 11:52 Mostly Cloudy 78 25.6 64 17.8 62 62 NE 6 9 29.94 1014 10 16 0.00 0.00
12:52 pm 12:52 Cloudy 76 24.4 62 16.7 62 62 N 9 15 29.94 1014 10 16 0.00 0.00
1:52 pm 13:52 Cloudy 78 25.6 62 16.7 58 58 NW 6 9 29.93 1013 10 16 0.00 0.00
2:52 pm 14:52 Mostly Cloudy 78 25.6 62 16.7 58 58 N 5 7 29.91 1013 10 16 0.00 0.00
3:52 pm 15:52 Mostly Cloudy 81 27.2 63 17.2 54 54 NNW 6 9 29.89 1012 10 16 0.00 0.00
4:52 pm 16:52 Mostly Cloudy 80 26.7 62 16.7 54 54 NNW 7 11 29.88 1012 10 16 0.00 0.00
5:52 pm 17:52 Mostly Cloudy 79 26.1 61 16.1 54 54 N 10 17 29.88 1012 10 16 0.00 0.00
6:52 pm 18:52 Mostly Cloudy 77 25 61 16.1 58 58 ENE 6 9 29.89 1012 10 16 0.00 0.00
7:52 pm 19:52 Partly Cloudy 75 23.9 62 16.7 64 64 ESE 5 7 29.88 1012 10 16 0.00 0.00
8:52 pm 20:52 Mostly Clear 74 23.3 63 17.2 69 69 Calm 29.91 1013 10 16 0.00 0.00
9:52 pm 21:52 Mostly Clear 73 22.8 63 17.2 71 71 Calm 29.92 1013 10 16 0.00 0.00
10:52 pm 22:52 Mostly Clear 72 22.2 64 17.8 76 76 Calm 29.93 1014 10 16 0.00 0.00
11:52 pm 23:52 Mostly Clear 70 21.1 64 17.8 81 81 Calm 29.94 1014 10 16 0.00 0.00

Powered by AerisWeather